• In Hungary
  • List of Countries
  • For 7 days
  • Water Temperature
  • Satellite Maps
  • Weather Map
  • News
  • Weather Widgets
  • user-avatar
    Login

    Hourly Weather Chyzowice

    Today, 16 October, Tuesday

    Time Temperature Precipitation Wind Pressure Humidity
    00:00 +11°C° 0 mm 3 mps 749 mmHg 64%
    01:00 +10°C° 0 mm 3 mps 748 mmHg 63%
    02:00 +10°C° 0 mm 3 mps 748 mmHg 62%
    03:00 +10°C° 0 mm 3 mps 748 mmHg 62%
    04:00 +10°C° 0 mm 3 mps 748 mmHg 61%
    05:00 +9°C° 0 mm 3 mps 748 mmHg 61%
    06:00 +10°C° 0 mm 3 mps 748 mmHg 61%
    07:00 +10°C° 0 mm 3 mps 748 mmHg 62%
    08:00 +10°C° 0 mm 3 mps 748 mmHg 62%
    09:00 +12°C° 0 mm 3 mps 748 mmHg 56%
    10:00 +14°C° 0 mm 3 mps 749 mmHg 50%
    11:00 +17°C° 0 mm 3 mps 749 mmHg 44%
    12:00 +18°C° 0 mm 3 mps 749 mmHg 41%
    13:00 +20°C° 0 mm 3 mps 748 mmHg 39%
    14:00 +21°C° 0 mm 3 mps 748 mmHg 37%
    15:00 +19°C° 0 mm 2 mps 748 mmHg 42%
    16:00 +18°C° 0 mm 2 mps 748 mmHg 47%
    17:00 +17°C° 0 mm 2 mps 748 mmHg 52%
    18:00 +16°C° 0 mm 2 mps 748 mmHg 55%
    19:00 +15°C° 0 mm 2 mps 748 mmHg 59%
    20:00 +14°C° 0 mm 2 mps 748 mmHg 62%
    21:00 +13°C° 0 mm 2 mps 748 mmHg 63%
    22:00 +13°C° 0 mm 2 mps 748 mmHg 65%
    23:00 +12°C° 0 mm 2 mps 748 mmHg 66%

    Tomorrow, 17 October, Wednesday

    Time Temperature Precipitation Wind Pressure Humidity
    00:00 +12°C° 0 mm 2 mps 748 mmHg 67%
    01:00 +10°C° 0 mm 2 mps 748 mmHg 68%
    02:00 +11°C° 0 mm 1 mps 748 mmHg 69%
    03:00 +11°C° 0 mm 1 mps 748 mmHg 70%
    04:00 +11°C° 0 mm 1 mps 748 mmHg 71%
    05:00 +10°C° 0 mm 1 mps 748 mmHg 72%
    06:00 +10°C° 0 mm 1 mps 748 mmHg 72%
    07:00 +10°C° 0 mm 2 mps 748 mmHg 72%
    08:00 +10°C° 0 mm 2 mps 748 mmHg 72%
    09:00 +13°C° 0 mm 2 mps 748 mmHg 65%
    10:00 +15°C° 0 mm 2 mps 748 mmHg 58%
    11:00 +17°C° 0 mm 2 mps 748 mmHg 51%
    12:00 +18°C° 0 mm 2 mps 748 mmHg 49%
    13:00 +19°C° 0 mm 2 mps 748 mmHg 46%
    14:00 +20°C° 0 mm 2 mps 748 mmHg 43%
    15:00 +19°C° 0 mm 2 mps 748 mmHg 49%
    16:00 +18°C° 0 mm 2 mps 747 mmHg 54%
    17:00 +18°C° 0 mm 1 mps 747 mmHg 59%
    18:00 +16°C° 0 mm 2 mps 747 mmHg 63%
    19:00 +15°C° 0 mm 2 mps 747 mmHg 67%
    20:00 +14°C° 0 mm 2 mps 747 mmHg 71%
    21:00 +14°C° 0 mm 2 mps 747 mmHg 74%
    22:00 +14°C° 0 mm 2 mps 747 mmHg 76%
    23:00 +13°C° 0 mm 2 mps 747 mmHg 79%

    Day after tomorrow, 18 October, Thursday

    Time Temperature Precipitation Wind Pressure Humidity
    00:00 +13°C° 0 mm 2 mps 747 mmHg 80%
    01:00 +13°C° 0 mm 2 mps 747 mmHg 80%
    02:00 +12°C° 0 mm 2 mps 747 mmHg 81%
    03:00 +12°C° 0 mm 2 mps 747 mmHg 81%
    04:00 +12°C° 0 mm 2 mps 747 mmHg 80%
    05:00 +10°C° 0 mm 2 mps 746 mmHg 79%
    06:00 +10°C° 0 mm 2 mps 746 mmHg 78%
    07:00 +10°C° 0 mm 2 mps 746 mmHg 76%
    08:00 +10°C° 0 mm 2 mps 746 mmHg 75%
    09:00 +12°C° 0 mm 3 mps 746 mmHg 68%
    10:00 +14°C° 0 mm 3 mps 746 mmHg 62%
    11:00 +18°C° 0 mm 3 mps 746 mmHg 55%
    12:00 +18°C° 0 mm 3 mps 746 mmHg 52%
    13:00 +19°C° 0 mm 3 mps 746 mmHg 50%
    14:00 +20°C° 0 mm 3 mps 746 mmHg 47%
    15:00 +19°C° 0 mm 2 mps 745 mmHg 52%
    16:00 +18°C° 0 mm 2 mps 745 mmHg 56%
    17:00 +18°C° 0 mm 1 mps 745 mmHg 60%
    18:00 +16°C° 0 mm 1 mps 745 mmHg 63%
    19:00 +15°C° 0 mm 1 mps 745 mmHg 67%
    20:00 +14°C° 0 mm 1 mps 745 mmHg 70%
    21:00 +14°C° 0 mm 1 mps 745 mmHg 72%
    22:00 +13°C° 0 mm 1 mps 745 mmHg 74%
    23:00 +13°C° 0 mm 1 mps 745 mmHg 76%

    19 October, Friday

    Time Temperature Precipitation Wind Pressure Humidity
    00:00 +12°C° 0 mm 1 mps 745 mmHg 78%
    01:00 +12°C° 0 mm 1 mps 745 mmHg 80%
    02:00 +12°C° 0 mm 1 mps 745 mmHg 81%
    03:00 +11°C° 0 mm 1 mps 745 mmHg 83%
    04:00 +11°C° 0 mm 1 mps 745 mmHg 85%
    05:00 +11°C° 0 mm 1 mps 745 mmHg 87%
    06:00 +11°C° 0 mm 1 mps 745 mmHg 86%
    07:00 +11°C° 0 mm 1 mps 745 mmHg 86%
    08:00 +11°C° 0 mm 1 mps 745 mmHg 85%
    09:00 +13°C° 0 mm 1 mps 745 mmHg 78%
    10:00 +14°C° 0 mm 2 mps 745 mmHg 71%
    11:00 +16°C° 0 mm 2 mps 746 mmHg 64%
    12:00 +17°C° 0 mm 2 mps 746 mmHg 62%
    13:00 +17°C° 0 mm 2 mps 745 mmHg 59%
    14:00 +18°C° 0 mm 3 mps 745 mmHg 56%
    15:00 +17°C° 0 mm 2 mps 745 mmHg 60%
    16:00 +16°C° 0 mm 2 mps 745 mmHg 64%
    17:00 +16°C° 0 mm 2 mps 745 mmHg 68%
    18:00 +15°C° 0 mm 2 mps 745 mmHg 70%
    19:00 +14°C° 0 mm 2 mps 746 mmHg 72%
    20:00 +13°C° 0 mm 2 mps 746 mmHg 75%
    21:00 +13°C° 0 mm 2 mps 746 mmHg 76%
    22:00 +13°C° 0 mm 2 mps 746 mmHg 77%
    23:00 +13°C° 0 mm 2 mps 746 mmHg 78%

    20 October, Saturday

    Time Temperature Precipitation Wind Pressure Humidity
    00:00 +12°C° 0 mm 2 mps 746 mmHg 79%
    01:00 +12°C° 0 mm 2 mps 746 mmHg 81%
    02:00 +12°C° 0 mm 2 mps 746 mmHg 82%
    03:00 +10°C° 0 mm 2 mps 746 mmHg 84%
    04:00 +10°C° 0 mm 2 mps 746 mmHg 86%
    05:00 +10°C° 0 mm 2 mps 747 mmHg 88%
    06:00 +10°C° 0 mm 2 mps 747 mmHg 88%
    07:00 +10°C° 0 mm 2 mps 747 mmHg 88%
    08:00 +10°C° 0 mm 2 mps 747 mmHg 88%
    09:00 +11°C° 0 mm 3 mps 748 mmHg 82%
    10:00 +13°C° 0 mm 3 mps 748 mmHg 76%
    11:00 +14°C° 0 mm 3 mps 748 mmHg 71%
    12:00 +15°C° 0 mm 4 mps 748 mmHg 68%
    13:00 +15°C° 0 mm 4 mps 748 mmHg 66%
    14:00 +17°C° 0 mm 4 mps 748 mmHg 64%
    15:00 +15°C° 0 mm 4 mps 748 mmHg 67%
    16:00 +14°C° 0 mm 4 mps 748 mmHg 69%
    17:00 +13°C° 0 mm 4 mps 748 mmHg 72%
    18:00 +12°C° 0 mm 3 mps 749 mmHg 75%
    19:00 +11°C° 0 mm 3 mps 749 mmHg 78%
    20:00 +10°C° 0 mm 3 mps 749 mmHg 81%
    21:00 +10°C° 0 mm 3 mps 749 mmHg 81%
    22:00 +9°C° 0 mm 3 mps 750 mmHg 81%
    23:00 +8°C° 0 mm 3 mps 750 mmHg 81%

    21 October, Sunday

    Time Temperature Precipitation Wind Pressure Humidity
    00:00 +8°C° 0 mm 3 mps 750 mmHg 82%
    01:00 +7°C° 0 mm 3 mps 750 mmHg 84%
    02:00 +5°C° 0 mm 3 mps 750 mmHg 85%
    03:00 +5°C° 0 mm 3 mps 750 mmHg 84%
    04:00 +5°C° 0 mm 3 mps 750 mmHg 83%
    05:00 +5°C° 0 mm 3 mps 750 mmHg 82%
    06:00 +7°C° 0 mm 3 mps 750 mmHg 80%
    07:00 +6°C° 0 mm 4 mps 751 mmHg 79%
    08:00 +6°C° 0 mm 4 mps 751 mmHg 77%
    09:00 +7°C° 0 mm 4 mps 751 mmHg 76%
    10:00 +8°C° 0 mm 4 mps 751 mmHg 74%
    11:00 +10°C° 0 mm 4 mps 751 mmHg 72%
    12:00 +11°C° 0 mm 4 mps 751 mmHg 69%
    13:00 +12°C° 0 mm 4 mps 751 mmHg 67%
    14:00 +12°C° 0 mm 4 mps 750 mmHg 64%
    15:00 +12°C° 0 mm 3 mps 750 mmHg 66%
    16:00 +12°C° 0 mm 3 mps 750 mmHg 68%
    17:00 +12°C° 0 mm 2 mps 750 mmHg 71%
    18:00 +12°C° 0 mm 2 mps 750 mmHg 74%
    19:00 +10°C° 0 mm 2 mps 750 mmHg 78%
    20:00 +9°C° 0 mm 2 mps 750 mmHg 82%
    21:00 +9°C° 0 mm 2 mps 750 mmHg 84%
    22:00 +8°C° 0 mm 2 mps 750 mmHg 85%
    23:00 +8°C° 0 mm 3 mps 750 mmHg 87%
    Show more